Fort Sill, OK

8:48 PM CDT on September 23, 2017 (GMT -0500)
Post Army Air Field

Weather History for KFSI - February, 2013

Change the Weather History Date:

Monday, February 25, 2013

  Actual Average Record
Temperature  
Mean Temperature 42 °F -  
Max Temperature 51 °F 60 °F 80 °F (1950)
Min Temperature 33 °F 35 °F 10 °F (1960)
Degree Days  
Heating Degree Days 23    
Moisture  
Dew Point 37 °F    
Average Humidity 91    
Maximum Humidity 100    
Minimum Humidity 62    
Precipitation  
Precipitation 0.51 in - - ()
Sea Level Pressure  
Sea Level Pressure 29.58 in    
Wind  
Wind Speed 18 mph (North)    
Max Wind Speed 29 mph    
Max Gust Speed 38 mph    
Visibility 8 miles    
Events Rain , Snow , Thunderstorm    
Averages and records for this station are not official NWS values.
T = Trace of Precipitation, MM = Missing Value Source: NWS Daily Summary

Daily Weather History Graph

Daily Weather History Graph

Search for Another Location

Airport or City:

Trip Planner

Search our weather history database for the weather conditions in past years. The results will help you decide how hot, cold, wet, or windy it might be!

Date:

Astronomy

Feb. 25, 2013 Rise Set
Actual Time 7:07 AM CST 6:26 PM CST
Civil Twilight 6:41 AM CST 6:51 PM CST
Nautical Twilight 6:12 AM CST 7:20 PM CST
Astronomical Twilight 5:43 AM CST 7:50 PM CST
Moon 6:38 PM CST (2/25) 6:40 AM CST (2/25)
Length of Visible Light 12h 09m
Length of Day
11h 18m
Full, 100% of the Moon is Illuminated
Feb 25
Full
Feb 25
Full
Mar 4
Last Quarter
Mar 11
New
Mar 19
First Quarter

Hourly Weather History & Observations

Time (CST) Temp. Windchill Dew Point Humidity Pressure Visibility Wind Dir Wind Speed Gust Speed Precip Events Conditions
12:03 AM 51.8 °F - 39.2 °F 62% 29.67 in 10.0 mi NNE 15.0 mph - N/A   Light Drizzle
12:15 AM 50.0 °F - 41.0 °F 71% 29.67 in 10.0 mi North 16.1 mph - N/A   Overcast
12:17 AM 50.0 °F - 41.0 °F 71% 29.67 in 10.0 mi North 17.3 mph - N/A Rain Light Rain
12:47 AM 46.4 °F 41.1 °F 42.8 °F 87% 29.71 in 10.0 mi NNW 11.5 mph - N/A Rain , Thunderstorm Light Thunderstorms and Rain
12:55 AM 46.4 °F 41.1 °F 43.0 °F 88% 29.70 in 10.0 mi North 11.5 mph - 0.01 in Rain , Thunderstorm Light Thunderstorms and Rain
1:05 AM 44.6 °F 38.1 °F 42.8 °F 93% 29.68 in 5.0 mi NNE 13.8 mph - N/A Rain , Thunderstorm Thunderstorms and Rain
1:15 AM 46.4 °F 40.7 °F 42.8 °F 87% 29.69 in 10.0 mi NNW 12.7 mph - N/A Rain , Thunderstorm Light Rain
1:22 AM 44.6 °F 37.8 °F 42.8 °F 93% 29.67 in 10.0 mi North 15.0 mph - N/A Rain , Thunderstorm Light Thunderstorms and Rain
1:37 AM 44.6 °F 37.8 °F 42.8 °F 93% 29.63 in 10.0 mi NE 15.0 mph - N/A Rain , Thunderstorm Light Rain
1:55 AM 45.3 °F 39.0 °F 43.0 °F 92% 29.65 in 10.0 mi NE 13.8 mph - 0.11 in Rain Light Rain
1:56 AM 44.6 °F 37.8 °F 42.8 °F 93% 29.65 in 10.0 mi NE 15.0 mph - N/A Rain , Thunderstorm Light Thunderstorms and Rain
1:59 AM 44.6 °F 37.8 °F 42.8 °F 93% 29.64 in 10.0 mi NE 15.0 mph - N/A Thunderstorm Thunderstorm
2:01 AM 44.6 °F 36.9 °F 42.8 °F 93% 29.63 in 9.0 mi NE 18.4 mph 24.2 mph N/A Rain , Thunderstorm Light Thunderstorms and Rain
2:11 AM 44.6 °F 37.8 °F 42.8 °F 93% 29.62 in 9.0 mi NE 15.0 mph - N/A Rain Light Rain
2:35 AM 44.6 °F 38.1 °F 41.0 °F 87% 29.61 in 10.0 mi ENE 13.8 mph - N/A   Overcast
2:47 AM 44.6 °F 37.8 °F 41.0 °F 87% 29.60 in 10.0 mi ENE 15.0 mph - N/A   Light Drizzle
2:55 AM 45.1 °F 38.4 °F 41.4 °F 87% 29.60 in 10.0 mi ENE 15.0 mph - 0.02 in Rain Light Rain
3:34 AM 46.4 °F 38.7 °F 41.0 °F 81% 29.52 in 10.0 mi ENE 20.7 mph - N/A   Overcast
3:37 AM 46.4 °F 39.0 °F 41.0 °F 81% 29.52 in 10.0 mi East 19.6 mph - N/A Rain Light Rain
3:49 AM 46.4 °F 37.9 °F 41.0 °F 81% 29.50 in 8.0 mi East 25.3 mph 31.1 mph N/A Rain , Thunderstorm Light Thunderstorms and Rain
3:55 AM 45.9 °F 38.5 °F 39.6 °F 79% 29.52 in 10.0 mi East 18.4 mph 31.1 mph 0.01 in Rain , Thunderstorm Light Thunderstorms and Rain
4:27 AM 44.6 °F 38.4 °F 41.0 °F 87% 29.57 in 10.0 mi NE 12.7 mph - N/A Rain , Thunderstorm Light Rain
4:35 AM 44.6 °F 38.8 °F 41.0 °F 87% 29.56 in 5.0 mi ENE 11.5 mph - N/A Rain , Thunderstorm Heavy Rain
4:46 AM 44.6 °F 38.4 °F 41.0 °F 87% 29.56 in 4.0 mi ENE 12.7 mph 20.7 mph N/A Rain , Thunderstorm Thunderstorms and Rain
4:55 AM 43.7 °F 36.6 °F 40.6 °F 89% 29.56 in 6.0 mi NNE 15.0 mph 19.6 mph 0.15 in Rain , Thunderstorm Thunderstorms and Rain
5:01 AM 42.8 °F 36.2 °F 41.0 °F 93% 29.56 in 10.0 mi NNE 12.7 mph - N/A Rain , Thunderstorm Rain
5:55 AM 42.6 °F 35.9 °F 41.0 °F 94% 29.57 in 10.0 mi NNE 12.7 mph - 0.03 in Rain Light Rain
6:15 AM 42.8 °F 35.4 °F 41.0 °F 93% 29.57 in 10.0 mi NNE 15.0 mph - N/A   Overcast
6:38 AM 42.8 °F 36.2 °F 41.0 °F 93% 29.57 in 10.0 mi North 12.7 mph - N/A   Light Drizzle
6:39 AM 42.8 °F 36.2 °F 41.0 °F 93% 29.57 in 10.0 mi North 12.7 mph - N/A   Light Drizzle
6:41 AM 42.8 °F 35.8 °F 41.0 °F 93% 29.58 in 10.0 mi North 13.8 mph - N/A   Light Drizzle
6:49 AM 42.8 °F 35.4 °F 41.0 °F 93% 29.57 in 10.0 mi North 15.0 mph - N/A Rain Light Rain
6:55 AM 41.9 °F 35.0 °F 40.8 °F 96% 29.58 in 10.0 mi North 12.7 mph - 0.00 in Rain Light Rain
7:16 AM 42.8 °F 36.2 °F 41.0 °F 93% 29.60 in 6.0 mi North 12.7 mph - N/A Rain Heavy Rain
7:55 AM 41.5 °F 34.6 °F 40.8 °F 97% 29.59 in 8.0 mi NNE 12.7 mph - 0.08 in Rain Light Rain
8:22 AM 41.0 °F 33.1 °F 41.0 °F 100% 29.58 in 10.0 mi NNE 15.0 mph - N/A Rain Light Rain
8:42 AM 41.0 °F 33.9 °F 41.0 °F 100% 29.56 in 10.0 mi NE 12.7 mph 21.9 mph N/A   Overcast
8:44 AM 41.0 °F 32.8 °F 41.0 °F 100% 29.55 in 10.0 mi NE 16.1 mph 21.9 mph N/A   Overcast
8:55 AM 41.7 °F 33.1 °F 41.0 °F 97% 29.54 in 10.0 mi NE 18.4 mph 24.2 mph 0.01 in   Overcast
9:44 AM 41.0 °F 33.1 °F 41.0 °F 100% 29.55 in 10.0 mi NE 15.0 mph 24.2 mph N/A   Overcast
9:55 AM 41.5 °F 33.2 °F 39.9 °F 94% 29.54 in 10.0 mi NE 17.3 mph 25.3 mph N/A   Overcast
10:55 AM 41.7 °F 33.7 °F 39.7 °F 93% 29.55 in 10.0 mi NE 16.1 mph 23.0 mph N/A   Overcast
11:55 AM 39.7 °F 29.0 °F 37.0 °F 90% 29.54 in 10.0 mi NNE 25.3 mph 32.2 mph N/A   Overcast
12:14 PM 39.2 °F 29.0 °F 37.4 °F 93% 29.54 in 10.0 mi NNE 21.9 mph 26.5 mph N/A   Overcast
12:39 PM 39.2 °F 29.6 °F 35.6 °F 87% 29.53 in 8.0 mi NNE 19.6 mph 26.5 mph N/A Rain Light Rain
12:55 PM 37.8 °F 26.8 °F 35.6 °F 92% 29.52 in 9.0 mi NNE 23.0 mph 28.8 mph 0.00 in Rain Light Rain
1:18 PM 37.4 °F 26.4 °F 35.6 °F 93% 29.51 in 6.0 mi NNE 23.0 mph 33.4 mph N/A Rain Light Rain
1:47 PM 37.4 °F 25.2 °F 35.6 °F 93% 29.51 in 2.5 mi NNE 28.8 mph 32.2 mph N/A   Overcast
1:55 PM 37.4 °F 26.6 °F 35.4 °F 93% 29.51 in 2.5 mi NNE 21.9 mph 32.2 mph 0.01 in   Overcast
1:56 PM 37.4 °F 27.2 °F 35.6 °F 93% 29.51 in 3.0 mi NNE 19.6 mph 31.1 mph N/A   Overcast
2:22 PM 35.6 °F 24.2 °F 35.6 °F 100% 29.51 in 2.5 mi North 21.9 mph 31.1 mph N/A   Overcast
2:27 PM 35.6 °F 24.0 °F 33.8 °F 93% 29.51 in 3.0 mi North 23.0 mph 29.9 mph N/A   Overcast
2:55 PM 35.1 °F 22.2 °F 33.4 °F 94% 29.51 in 5.0 mi North 27.6 mph 35.7 mph 0.04 in   Overcast
2:56 PM 35.6 °F 23.4 °F 33.8 °F 93% 29.52 in 5.0 mi North 25.3 mph 35.7 mph N/A   Overcast
3:16 PM 33.8 °F 21.6 °F 33.8 °F 100% 29.52 in 5.0 mi North 23.0 mph 35.7 mph N/A   Overcast
3:17 PM 33.8 °F 21.0 °F 33.8 °F 100% 29.52 in 5.0 mi North 25.3 mph 35.7 mph N/A   Overcast
3:30 PM 33.8 °F 21.0 °F 32.0 °F 93% 29.53 in 4.0 mi North 25.3 mph 31.1 mph N/A   Overcast
3:37 PM 33.8 °F 21.0 °F 32.0 °F 93% 29.53 in 2.5 mi North 25.3 mph 33.4 mph N/A   Overcast
3:47 PM 33.8 °F 21.3 °F 32.0 °F 93% 29.53 in 3.0 mi North 24.2 mph 31.1 mph N/A Snow Light Snow
3:48 PM 33.8 °F 21.3 °F 32.0 °F 93% 29.53 in 3.0 mi North 24.2 mph 31.1 mph N/A Snow Light Snow
3:54 PM 33.8 °F 20.8 °F 32.0 °F 93% 29.53 in 3.0 mi North 26.5 mph 34.5 mph N/A Snow Light Snow
3:55 PM 33.8 °F 21.0 °F 32.5 °F 95% 29.53 in 4.0 mi North 25.3 mph 34.5 mph 0.01 in Snow Light Snow
4:03 PM 33.8 °F 21.0 °F 32.0 °F 93% 29.53 in 4.0 mi North 25.3 mph 35.7 mph N/A Snow Light Snow
4:05 PM 33.8 °F 20.8 °F 32.0 °F 93% 29.53 in 3.0 mi North 26.5 mph 35.7 mph N/A Snow Light Snow
4:11 PM 33.8 °F 21.0 °F 32.0 °F 93% 29.53 in 3.0 mi North 25.3 mph 33.4 mph N/A Snow Light Snow
4:15 PM 33.8 °F 21.6 °F 32.0 °F 93% 29.53 in 3.0 mi North 23.0 mph 33.4 mph N/A Snow Light Snow
4:17 PM 33.8 °F 22.2 °F 32.0 °F 93% 29.53 in 3.0 mi North 20.7 mph 33.4 mph N/A Snow Light Snow
4:24 PM 33.8 °F 21.3 °F 32.0 °F 93% 29.53 in 4.0 mi North 24.2 mph 32.2 mph N/A Snow Light Snow
4:27 PM 33.8 °F 21.9 °F 32.0 °F 93% 29.53 in 6.0 mi North 21.9 mph 32.2 mph N/A Snow Light Snow
4:29 PM 33.8 °F 21.3 °F 32.0 °F 93% 29.53 in 6.0 mi North 24.2 mph 32.2 mph N/A Snow Light Snow
4:30 PM 33.8 °F 21.0 °F 32.0 °F 93% 29.53 in 7.0 mi North 25.3 mph 31.1 mph N/A Snow Light Snow
4:39 PM 33.8 °F 20.8 °F 32.0 °F 93% 29.53 in 9.0 mi North 26.5 mph 32.2 mph N/A Snow Light Snow
4:55 PM 34.5 °F 22.5 °F 32.9 °F 94% 29.53 in 9.0 mi North 23.0 mph 28.8 mph 0.01 in Snow Light Snow
5:04 PM 35.6 °F 23.7 °F 33.8 °F 93% 29.54 in 10.0 mi North 24.2 mph 34.5 mph N/A Rain Light Freezing Rain
5:26 PM 35.6 °F 24.2 °F 32.0 °F 87% 29.55 in 10.0 mi North 21.9 mph 33.4 mph N/A Rain Light Rain
5:50 PM 33.8 °F 21.3 °F 32.0 °F 93% 29.55 in 6.0 mi North 24.2 mph 33.4 mph N/A   Overcast
5:55 PM 34.2 °F 22.3 °F 32.4 °F 93% 29.56 in 5.0 mi North 21.9 mph 33.4 mph 0.00 in   Overcast
5:59 PM 33.8 °F 22.8 °F 32.0 °F 93% 29.56 in 5.0 mi North 18.4 mph 32.2 mph N/A   Overcast
6:10 PM 33.8 °F 21.0 °F 32.0 °F 93% 29.57 in 5.0 mi North 25.3 mph 33.4 mph N/A   Overcast
6:23 PM 33.8 °F 21.6 °F 32.0 °F 93% 29.58 in 6.0 mi North 23.0 mph 31.1 mph N/A   Overcast
6:44 PM 33.8 °F 20.3 °F 33.8 °F 100% 29.59 in 10.0 mi North 28.8 mph 38.0 mph N/A Snow Light Snow
6:55 PM 34.7 °F 23.1 °F 33.4 °F 95% 29.60 in 10.0 mi North 21.9 mph 35.7 mph 0.01 in Rain Light Rain
7:01 PM 35.6 °F 23.4 °F 33.8 °F 93% 29.60 in 10.0 mi North 25.3 mph 34.5 mph N/A Rain Light Freezing Rain
7:05 PM 33.8 °F 21.3 °F 33.8 °F 100% 29.60 in 10.0 mi North 24.2 mph 34.5 mph N/A Rain Light Freezing Rain
7:08 PM 33.8 °F 21.9 °F 33.8 °F 100% 29.61 in 9.0 mi North 21.9 mph 34.5 mph N/A Rain Light Freezing Rain
7:17 PM 33.8 °F 21.3 °F 33.8 °F 100% 29.61 in 10.0 mi North 24.2 mph 34.5 mph N/A Rain Light Freezing Rain
7:19 PM 33.8 °F 20.8 °F 33.8 °F 100% 29.61 in 10.0 mi North 26.5 mph 34.5 mph N/A Rain Light Rain
7:32 PM 35.6 °F 24.2 °F 33.8 °F 93% 29.62 in 10.0 mi North 21.9 mph 36.8 mph N/A Rain Light Rain
7:35 PM 35.6 °F 24.0 °F 33.8 °F 93% 29.62 in 10.0 mi North 23.0 mph 36.8 mph N/A   Overcast
7:36 PM 35.6 °F 24.0 °F 33.8 °F 93% 29.62 in 10.0 mi North 23.0 mph 36.8 mph N/A   Overcast
7:55 PM 35.1 °F 23.3 °F 33.8 °F 95% 29.63 in 10.0 mi North 23.0 mph 35.7 mph 0.01 in Rain Light Rain
8:10 PM 35.6 °F 24.0 °F 33.8 °F 93% 29.64 in 10.0 mi North 23.0 mph 33.4 mph N/A   Overcast
8:21 PM 35.6 °F 23.7 °F 33.8 °F 93% 29.65 in 10.0 mi NNW 24.2 mph 35.7 mph N/A   Light Drizzle
8:55 PM 35.2 °F 23.8 °F 32.9 °F 91% 29.67 in 10.0 mi NNW 21.9 mph 33.4 mph 0.00 in Rain Light Rain
9:05 PM 35.6 °F 24.2 °F 32.0 °F 87% 29.67 in 10.0 mi NNW 21.9 mph 29.9 mph N/A   Overcast
9:55 PM 34.9 °F 22.5 °F 31.3 °F 87% 29.69 in 10.0 mi NNW 25.3 mph 35.7 mph 0.00 in   Overcast
10:33 PM 35.6 °F 23.7 °F 30.2 °F 81% 29.70 in 10.0 mi NNW 24.2 mph 32.2 mph N/A   Overcast
10:55 PM 35.1 °F 23.3 °F 31.1 °F 85% 29.72 in 10.0 mi NW 23.0 mph 32.2 mph N/A   Overcast
10:59 PM 35.6 °F 24.0 °F 30.2 °F 81% 29.73 in 10.0 mi NNW 23.0 mph 32.2 mph N/A   Overcast
11:11 PM 35.6 °F 24.5 °F 30.2 °F 81% 29.73 in 10.0 mi NW 20.7 mph 32.2 mph N/A   Overcast
11:55 PM 35.4 °F 24.6 °F 31.1 °F 84% 29.74 in 10.0 mi NW 19.6 mph 29.9 mph N/A   Overcast